#timestamp,LO_Frequency,Hit,StdDev 
1549951215.4,286046999.3,N
1549951235.3,286046998.3,N
1549951255.1,286046998.7,N
1549951275.8,286046998.8,N
1549951295.7,286046998.9,N
1549951315.5,286046998.7,N
1549951335.4,286046999.3,N
1549951355.2,286046999.1,N
1549951375.0,286046997.4,N
1549951375.9,286046997.4,N
1549951395.8,286046997.3,N
1549951415.6,286046996.4,N
1549951435.5,286046995.1,Y
1549951455.3,286046995.0,P
1549951475.1,286046999.5,N
1549951495.9,286046998.2,N
1549951515.7,286046998.2,N
1549951535.5,286046998.7,N
1549951555.4,286046998.2,N
1549951575.2,286046998.8,N
1549951595.1,286046998.5,N
1549951596.0,286046998.5,N
1549951615.8,286046998.2,N
1549951635.6,286046996.6,Y
1549951655.5,286046998.1,P
1549951675.3,286046999.0,P
1549951695.2,286047000.9,N
1549951715.9,286046998.5,N
1549951735.7,286046998.6,N
1549951755.6,286046999.0,N
1549951775.4,286046997.4,Y
1549951795.2,286046999.6,P
1549951815.1,286046997.8,P
1549951816.0,286046997.8,P
1549951835.8,286046997.0,Y
1549951855.7,286047000.6,P
1549951875.5,286047000.4,N
1549951895.3,286047000.4,N
1549951915.2,286046999.4,N
1549951935.0,286046997.9,N
1549951935.9,286046997.9,N
1549951955.8,286046996.6,Y
1549951975.6,286046997.4,P
1549951995.4,286046998.4,N
1549952015.3,286047002.7,P
1549952035.1,286047000.0,N
1549952055.9,286046998.1,N
1549952075.7,286046999.4,N
1549952095.5,286046999.6,N
1549952115.4,286046997.1,N
1549952135.2,286046996.9,N
1549952155.0,286046998.9,N
1549952155.9,286046998.9,N
1549952175.8,286046998.4,N
1549952195.6,286046998.6,N
1549952215.5,286046999.3,N
1549952235.3,286046996.7,N
1549952255.1,286046998.1,N
1549952275.9,286046996.5,N
1549952295.7,286046997.7,N
1549952315.5,286046996.8,N
1549952335.4,286046998.9,N
1549952355.2,286046997.1,N
1549952375.1,286046996.0,N
1549952376.0,286046996.0,N
1549952395.8,286046995.9,N
1549952415.6,286046993.9,Y
1549952435.5,286046997.2,P
1549952455.3,286046997.4,P
1549952475.1,286046995.3,P
1549952495.9,286046998.0,N
1549952515.7,286046998.9,N
1549952535.6,286046998.5,N
1549952555.4,286047000.6,N
1549952575.2,286047002.1,N
1549952595.1,286047002.6,N
1549952596.0,286047002.6,N
1549952615.8,286047001.6,N
1549952635.7,286047002.7,N
1549952655.5,286047002.7,N
1549952675.3,286047000.4,N
1549952695.2,286047000.9,N
1549952715.9,286047000.6,N
1549952735.7,286047002.6,N
1549952755.6,286047003.7,N
1549952775.4,286047005.6,N
1549952795.3,286047005.2,N
1549952815.1,286047005.8,N
1549952816.0,286047005.8,N
1549952835.8,286047003.3,N
1549952855.7,286047007.1,N
1549952875.5,286047004.5,N
1549952895.3,286047005.1,N
1549952915.2,286047005.9,N
1549952935.0,286047003.3,N
1549952935.9,286047003.3,N
1549952955.8,286047002.9,N
1549952975.6,286047004.7,N
1549952995.4,286047005.0,N
1549953015.3,286047006.7,N
1549953035.1,286047006.6,N
1549953055.8,286047006.2,N
1549953075.7,286047009.2,Y
1549953095.5,286047007.6,P
1549953115.4,286047005.1,N
1549953135.2,286047004.9,N
1549953155.0,286047007.6,Y
1549953155.9,286047007.6,P
1549953175.8,286047000.2,N
1549953195.6,286047000.0,N
1549953215.5,286047002.8,N
1549953235.3,286047000.1,N
1549953255.1,286046999.8,N
1549953275.9,286047002.8,N
1549953295.7,286047002.4,N
1549953315.5,286047001.5,N
1549953335.4,286047004.2,N
1549953355.2,286047003.2,N
1549953375.1,286047003.2,N
1549953376.0,286047003.2,N
1549953395.8,286047003.7,N
1549953415.6,286047004.4,N
1549953435.5,286047001.7,N
1549953455.3,286047004.3,N
1549953475.2,286047004.2,N
1549953495.9,286047006.0,Y
1549953515.7,286046999.7,P
1549953535.6,286047002.0,N
1549953555.4,286047000.1,N
1549953575.2,286047002.3,N
1549953595.1,286047001.9,N
1549953596.0,286047001.9,N
1549953615.8,286047002.2,N
1549953635.7,286047000.2,N
1549953655.5,286047001.6,N
1549953675.3,286047003.6,Y
1549953695.2,286047005.6,P
1549953715.0,286047003.0,N
1549953715.9,286047003.0,N
1549953735.8,286047003.1,N
1549953755.6,286047003.1,N
1549953775.4,286047004.1,Y
1549953795.3,286047000.8,P
1549953815.1,286046998.2,N
1549953835.9,286047001.2,N
1549953855.7,286046998.6,N
1549953875.5,286047000.0,N
1549953895.4,286046999.7,N
1549953915.2,286047002.2,N
1549953935.0,286047001.3,N
1549953935.9,286047001.3,N
1549953955.8,286047003.9,N
1549953975.6,286047001.3,N
1549953995.5,286047003.6,N
1549954015.3,286047001.6,N
1549954035.1,286047004.3,N
1549954055.9,286047003.3,N
1549954075.7,286047003.2,N
1549954095.5,286047003.2,N
1549954115.4,286047006.0,Y
1549954135.2,286047001.7,P
1549954155.1,286047002.0,P
1549954156.0,286047002.0,P
1549954175.8,286047001.4,Y
1549954195.6,286047002.7,P
1549954215.5,286047002.3,P
1549954235.3,286047001.6,P
1549954255.2,286047002.4,Y
1549954275.9,286046999.4,P
1549954295.7,286046998.2,N
1549954315.6,286046998.2,N
1549954335.4,286046998.4,N
1549954355.2,286046999.4,N
1549954375.1,286046998.8,N
1549954376.0,286046998.8,N
1549954395.8,286046998.6,N
1549954415.7,286047000.0,N
1549954435.5,286046999.9,N
1549954455.3,286047000.2,N
1549954475.2,286047000.2,N
1549954495.0,286047000.6,N
1549954495.9,286047000.6,N
1549954515.8,286047000.2,N
1549954535.6,286047000.0,N
1549954555.4,286047001.1,N
1549954575.3,286046998.2,N
1549954595.1,286047002.7,N
1549954615.8,286047002.8,N
1549954635.7,286047002.1,N
1549954655.5,286047000.1,N
1549954675.4,286047002.4,N
1549954695.2,286047002.6,N
1549954715.0,286047002.3,N
1549954715.9,286047002.3,N
1549954735.8,286047001.6,N
1549954755.6,286047002.5,N
1549954775.4,286047002.4,N
1549954795.3,286047000.1,N
